Weather History for West Plains, MO

Change the Weather History Date:

Thursday, October 3, 2013

  Actual Average Record
Temperature  
Mean Temperature 72 °F 62 °F  
Max Temperature 79 °F 74 °F 92 °F (1969)
Min Temperature 65 °F 49 °F 32 °F (1952)
Degree Days  
Heating Degree Days 0 5  
Month to date heating degree days 0 15  
Since 1 July heating degree days 20 57  
Cooling Degree Days 7 2  
Month to date cooling degree days 21 6  
Year to date cooling degree days 1059 1334  
Growing Degree Days 22 (Base 50)    
Moisture  
Dew Point 68 °F    
Average Humidity 87    
Maximum Humidity 100    
Minimum Humidity 74    
Precipitation  
Precipitation 0.02 in 0.12 in 3.32 in (1959)
Month to date precipitation 0.02 0.37  
Year to date precipitation 43.90 34.53  
Sea Level Pressure  
Sea Level Pressure 29.98 in    
Wind  
Wind Speed 7 mph (SSE)    
Max Wind Speed 13 mph    
Max Gust Speed 17 mph    
Visibility 8 miles    
Events Rain    
T = Trace of Precipitation, MM = Missing Value Source: NWS Daily Summary

Daily Weather History Graph

Daily Weather History Graph

Search for Another Location

Airport:

Trip Planner

Search our weather history database for the weather conditions in past years. The results will help you decide how hot, cold, wet, or windy it might be!

Date:

Astronomy

Oct. 03, 2013 Rise Set
Actual Time 7:04 AM CDT 6:47 PM CDT
Civil Twilight 6:38 AM CDT 7:13 PM CDT
Nautical Twilight 6:08 AM CDT 7:43 PM CDT
Astronomical Twilight 5:38 AM CDT 8:13 PM CDT
Moon 5:40 AM CDT (10/3) 5:55 PM CDT (10/3)
Length of Visible Light 12h 34m
Length of Day
11h 42m
Waning Crescent, 2% of the Moon is Illuminated
Oct 3
Waning Crescent
Oct 4
New
Oct 11
First Quarter
Oct 18
Full
Oct 26
Last Quarter

Hourly Weather History & Observations

Time (CDT) Temp. Dew Point Humidity Pressure Visibility Wind Dir Wind Speed Gust Speed Precip Events Conditions
12:25 AM 68.0 °F 66.2 °F 94% 30.03 in 9.0 mi SE 3.5 mph - N/A   Partly Cloudy
12:49 AM 68.0 °F 66.2 °F 94% 30.02 in 8.0 mi SSE 5.8 mph - N/A   Mostly Cloudy
12:53 AM 66.9 °F 66.0 °F 97% 29.99 in 7.0 mi SSE 4.6 mph - N/A   Scattered Clouds
1:53 AM 66.9 °F 66.0 °F 97% 29.99 in 10.0 mi SSE 5.8 mph - N/A   Clear
2:13 AM 66.2 °F 66.2 °F 100% 30.02 in 9.0 mi South 4.6 mph - N/A   Partly Cloudy
2:53 AM 66.9 °F 64.9 °F 93% 29.99 in 9.0 mi South 4.6 mph - N/A   Scattered Clouds
3:53 AM 66.0 °F 64.9 °F 96% 29.98 in 8.0 mi Calm Calm - N/A   Scattered Clouds
4:53 AM 66.0 °F 64.9 °F 96% 29.98 in 7.0 mi SSE 4.6 mph - N/A   Mostly Cloudy
5:21 AM 66.2 °F 64.4 °F 94% 30.01 in 7.0 mi SSE 3.5 mph - N/A   Mostly Cloudy
5:53 AM 66.0 °F 64.0 °F 93% 29.97 in 5.0 mi SSE 4.6 mph - N/A   Mostly Cloudy
6:53 AM 66.9 °F 66.0 °F 97% 29.99 in 5.0 mi SSE 5.8 mph - 0.01 in   Overcast
7:38 AM 66.2 °F 66.2 °F 100% 30.02 in 2.5 mi South 5.8 mph - N/A   Overcast
7:53 AM 66.9 °F 66.0 °F 97% 29.99 in 2.5 mi South 5.8 mph - N/A   Overcast
8:15 AM 66.2 °F 66.2 °F 100% 30.02 in 1.5 mi South 5.8 mph - N/A   Overcast
8:53 AM 68.0 °F 66.9 °F 96% 29.99 in 2.5 mi South 6.9 mph - N/A   Overcast
9:01 AM 68.0 °F 66.2 °F 94% 30.03 in 3.0 mi South 6.9 mph - N/A   Overcast
9:53 AM 70.0 °F 68.0 °F 93% 29.99 in 7.0 mi South 9.2 mph - N/A   Overcast
10:12 AM 71.6 °F 68.0 °F 88% 30.03 in 9.0 mi South 6.9 mph - N/A   Overcast
10:33 AM 71.6 °F 68.0 °F 88% 30.03 in 10.0 mi South 6.9 mph - N/A   Overcast
10:48 AM 73.4 °F 68.0 °F 83% 30.04 in 10.0 mi SSW 8.1 mph - N/A   Overcast
10:53 AM 73.0 °F 68.0 °F 84% 30.01 in 10.0 mi South 8.1 mph - N/A   Overcast
11:53 AM 75.0 °F 68.0 °F 79% 29.99 in 10.0 mi South 9.2 mph - N/A   Mostly Cloudy
12:04 PM 73.4 °F 69.8 °F 88% 30.02 in 4.0 mi South 6.9 mph - 0.02 in Rain Light Rain
12:33 PM 75.2 °F 69.8 °F 83% 30.01 in 10.0 mi South 10.4 mph - 0.02 in   Mostly Cloudy
12:36 PM 75.2 °F 69.8 °F 83% 30.01 in 10.0 mi South 9.2 mph - 0.02 in   Mostly Cloudy
12:44 PM 75.2 °F 69.8 °F 83% 30.01 in 10.0 mi South 8.1 mph - 0.02 in   Mostly Cloudy
12:53 PM 75.9 °F 69.1 °F 79% 29.97 in 10.0 mi South 9.2 mph - 0.02 in   Mostly Cloudy
1:53 PM 75.9 °F 69.1 °F 79% 29.95 in 10.0 mi South 9.2 mph - 0.00 in   Mostly Cloudy
2:35 PM 75.2 °F 68.0 °F 78% 29.96 in 10.0 mi South 9.2 mph - N/A   Mostly Cloudy
2:53 PM 75.9 °F 69.1 °F 79% 29.93 in 10.0 mi South 8.1 mph - 0.00 in   Mostly Cloudy
3:13 PM 77.0 °F 69.8 °F 78% 29.95 in 10.0 mi SSE 11.5 mph 17.3 mph N/A   Mostly Cloudy
3:44 PM 78.8 °F 69.8 °F 74% 29.95 in 10.0 mi South 10.4 mph - N/A   Scattered Clouds
3:53 PM 78.1 °F 69.1 °F 74% 29.92 in 10.0 mi SSE 10.4 mph - N/A   Mostly Cloudy
4:10 PM 78.8 °F 69.8 °F 74% 29.95 in 10.0 mi South 8.1 mph - N/A   Mostly Cloudy
4:53 PM 79.0 °F 69.1 °F 72% 29.91 in 10.0 mi SSE 9.2 mph - N/A   Mostly Cloudy
5:53 PM 77.0 °F 69.1 °F 76% 29.90 in 10.0 mi SSE 5.8 mph - N/A   Scattered Clouds
6:53 PM 75.0 °F 69.1 °F 82% 29.91 in 10.0 mi SSE 5.8 mph - N/A   Clear
7:53 PM 73.0 °F 69.1 °F 87% 29.92 in 10.0 mi SSE 9.2 mph - N/A   Clear
8:53 PM 71.1 °F 68.0 °F 90% 29.94 in 10.0 mi SSE 6.9 mph - N/A   Clear
9:53 PM 71.1 °F 68.0 °F 90% 29.94 in 10.0 mi SSE 6.9 mph - N/A   Clear
10:51 PM 69.8 °F 69.8 °F 100% 29.98 in 7.0 mi South 5.8 mph - N/A   Partly Cloudy
11:53 PM 70.0 °F 69.1 °F 97% 29.94 in 6.0 mi South 8.1 mph - N/A   Partly Cloudy